Time,TemperatureF,DewpointF,PressureIn,WindDirection,WindDirectionDegrees,WindSpeedMPH,WindSpeedGustMPH,Humidity,HourlyPrecipIn,Conditions,Clouds,dailyrainin,SolarRadiationWatts/m^2,SoftwareType,DateUTC
2013-07-02 00:11:00,63.0,61.0,29.96,ESE,110,3.0,6.0,93,0.00,,,0.00,0.000000,,2013-07-02 04:11:00,
2013-07-02 00:22:00,63.0,61.0,29.95,NE,44,2.0,6.0,93,0.00,,,0.00,0.000000,,2013-07-02 04:22:00,
2013-07-02 00:32:00,63.0,61.0,29.95,NE,44,2.0,6.0,93,0.00,,,0.00,0.000000,,2013-07-02 04:32:00,
2013-07-02 00:42:00,63.0,61.0,29.95,NE,44,2.0,6.0,93,0.00,,,0.00,0.000000,,2013-07-02 04:42:00,
2013-07-02 00:53:00,63.0,61.0,29.95,North,5,1.0,4.0,93,0.00,,,0.00,0.000000,,2013-07-02 04:53:00,
2013-07-02 01:02:00,63.0,61.0,29.95,North,5,1.0,4.0,93,0.00,,,0.00,0.000000,,2013-07-02 05:02:00,
2013-07-02 01:22:00,63.0,61.0,29.95,ENE,64,0.0,4.0,93,0.00,,,0.00,0.000000,,2013-07-02 05:22:00,
2013-07-02 01:32:00,64.0,62.0,29.96,ENE,63,1.0,5.0,93,0.00,,,0.00,0.000000,,2013-07-02 05:32:00,
2013-07-02 01:43:00,64.0,62.0,29.96,East,82,0.0,4.0,92,0.00,,,0.00,0.000000,,2013-07-02 05:43:00,
2013-07-02 01:53:00,64.0,62.0,29.96,East,82,0.0,4.0,92,0.00,,,0.00,0.000000,,2013-07-02 05:53:00,
2013-07-02 02:01:00,64.0,62.0,29.95,East,99,0.0,3.0,92,0.00,,,0.00,0.000000,,2013-07-02 06:01:00,
2013-07-02 02:23:00,64.0,62.0,29.95,NE,55,1.0,8.0,92,0.00,,,0.00,0.000000,,2013-07-02 06:23:00,
2013-07-02 02:34:00,64.0,62.0,29.95,NE,48,0.0,3.0,92,0.00,,,0.00,0.000000,,2013-07-02 06:34:00,
2013-07-02 02:53:00,63.0,61.0,29.95,NNE,19,0.0,5.0,92,0.00,,,0.00,0.000000,,2013-07-02 06:53:00,
2013-07-02 03:01:00,64.0,62.0,29.95,NNE,27,0.0,4.0,92,0.00,,,0.00,0.000000,,2013-07-02 07:01:00,
2013-07-02 03:22:00,63.0,61.0,29.94,NNE,27,0.0,2.0,92,0.00,,,0.00,0.000000,,2013-07-02 07:22:00,
2013-07-02 03:44:00,63.0,61.0,29.94,North,5,1.0,5.0,93,0.00,,,0.00,0.000000,,2013-07-02 07:44:00,
2013-07-02 03:53:00,63.0,61.0,29.94,North,5,1.0,5.0,93,0.00,,,0.00,0.000000,,2013-07-02 07:53:00,
2013-07-02 04:02:00,63.0,61.0,29.93,North,11,0.0,4.0,93,0.00,,,0.00,0.000000,,2013-07-02 08:02:00,
2013-07-02 04:12:00,63.0,61.0,29.93,North,11,0.0,4.0,93,0.00,,,0.00,0.000000,,2013-07-02 08:12:00,
2013-07-02 04:22:00,63.0,61.0,29.94,North,11,0.0,3.0,93,0.00,,,0.00,0.000000,,2013-07-02 08:22:00,
2013-07-02 04:33:00,63.0,61.0,29.94,NE,38,0.0,3.0,94,0.00,,,0.00,0.000000,,2013-07-02 08:33:00,
2013-07-02 04:44:00,63.0,61.0,29.95,NE,38,0.0,2.0,94,0.00,,,0.00,0.000000,,2013-07-02 08:44:00,
2013-07-02 04:53:00,63.0,61.0,29.95,NE,38,0.0,2.0,94,0.00,,,0.00,0.000000,,2013-07-02 08:53:00,
2013-07-02 05:23:00,62.0,61.0,29.95,North,5,1.0,5.0,95,0.00,,,0.00,0.000000,,2013-07-02 09:23:00,
2013-07-02 05:52:00,62.0,61.0,29.96,NNE,17,3.0,5.0,95,0.00,,,0.00,0.000000,,2013-07-02 09:52:00,
2013-07-02 06:01:00,62.0,61.0,29.96,NNE,19,0.0,2.0,96,0.00,,,0.00,0.000000,,2013-07-02 10:01:00,
2013-07-02 06:11:00,62.0,61.0,29.96,NNE,19,0.0,2.0,96,0.00,,,0.00,0.000000,,2013-07-02 10:11:00,
2013-07-02 06:44:00,62.0,61.0,29.96,NNE,21,0.0,3.0,96,0.00,,,0.00,0.000000,,2013-07-02 10:44:00,
2013-07-02 06:52:00,62.0,61.0,29.96,NNE,24,1.0,5.0,96,0.00,,,0.00,5.000000,,2013-07-02 10:52:00,
2013-07-02 07:01:00,62.0,61.0,29.96,NNE,12,2.0,6.0,96,0.00,,,0.00,9.000000,,2013-07-02 11:01:00,
2013-07-02 07:11:00,62.0,61.0,29.96,NNE,12,2.0,6.0,96,0.00,,,0.00,9.000000,,2013-07-02 11:11:00,
2013-07-02 07:22:00,62.0,61.0,29.97,NE,34,0.0,5.0,97,0.00,,,0.00,14.000000,,2013-07-02 11:22:00,
2013-07-02 07:42:00,62.0,61.0,29.97,NE,34,0.0,3.0,97,0.00,,,0.00,33.000000,,2013-07-02 11:42:00,
2013-07-02 07:52:00,62.0,61.0,29.98,NE,39,0.0,3.0,96,0.00,,,0.00,39.000000,,2013-07-02 11:52:00,
2013-07-02 08:01:00,62.0,61.0,29.98,East,93,0.0,5.0,97,0.00,,,0.00,56.000000,,2013-07-02 12:01:00,
2013-07-02 08:11:00,62.0,61.0,29.98,East,93,0.0,5.0,97,0.00,,,0.00,56.000000,,2013-07-02 12:11:00,
2013-07-02 08:23:00,63.0,62.0,29.98,East,94,0.0,1.0,96,0.00,,,0.00,93.000000,,2013-07-02 12:23:00,
2013-07-02 08:33:00,63.0,62.0,29.98,ESE,117,0.0,3.0,96,0.00,,,0.00,118.000000,,2013-07-02 12:33:00,
2013-07-02 08:43:00,64.0,63.0,29.98,ESE,112,0.0,4.0,95,0.00,,,0.00,111.000000,,2013-07-02 12:43:00,
2013-07-02 08:52:00,64.0,63.0,29.98,ESE,112,0.0,4.0,95,0.00,,,0.00,111.000000,,2013-07-02 12:52:00,
2013-07-02 09:01:00,64.0,63.0,29.98,ESE,112,0.0,4.0,95,0.00,,,0.00,111.000000,,2013-07-02 13:01:00,
2013-07-02 09:11:00,65.0,64.0,29.98,ESE,113,0.0,1.0,95,0.00,,,0.00,179.000000,,2013-07-02 13:11:00,
2013-07-02 09:22:00,65.0,63.0,29.98,ESE,115,0.0,3.0,94,0.00,,,0.00,288.000000,,2013-07-02 13:22:00,
2013-07-02 10:02:00,69.0,65.0,29.98,ESE,110,1.0,5.0,87,0.00,,,0.00,278.000000,,2013-07-02 14:02:00,
2013-07-02 10:11:00,69.0,65.0,29.98,ESE,110,1.0,5.0,87,0.00,,,0.00,278.000000,,2013-07-02 14:11:00,
2013-07-02 10:22:00,69.0,65.0,29.99,SSE,147,0.0,2.0,86,0.00,,,0.00,313.000000,,2013-07-02 14:22:00,
2013-07-02 10:43:00,71.0,65.0,29.99,SE,128,2.0,4.0,82,0.00,,,0.00,241.000000,,2013-07-02 14:43:00,
2013-07-02 10:53:00,71.0,65.0,29.99,SE,128,2.0,4.0,82,0.00,,,0.00,241.000000,,2013-07-02 14:53:00,
2013-07-02 11:11:00,71.0,65.0,29.99,SE,132,0.0,3.0,82,0.00,,,0.00,297.000000,,2013-07-02 15:11:00,
2013-07-02 11:22:00,72.0,66.0,29.99,SE,137,1.0,3.0,82,0.00,,,0.00,311.000000,,2013-07-02 15:22:00,
2013-07-02 11:33:00,73.0,67.0,30.00,SE,133,1.0,5.0,81,0.00,,,0.00,313.000000,,2013-07-02 15:33:00,
2013-07-02 11:53:00,73.0,66.0,30.00,SSE,156,3.0,9.0,78,0.00,,,0.00,190.000000,,2013-07-02 15:53:00,
2013-07-02 12:01:00,72.0,65.0,30.00,SSE,155,0.0,4.0,79,0.00,,,0.00,427.000000,,2013-07-02 16:01:00,
2013-07-02 12:12:00,72.0,65.0,30.00,SSE,155,0.0,4.0,79,0.00,,,0.00,427.000000,,2013-07-02 16:12:00,
2013-07-02 12:22:00,72.0,65.0,30.01,WNW,302,0.0,5.0,80,0.00,,,0.00,339.000000,,2013-07-02 16:22:00,
2013-07-02 12:43:00,72.0,66.0,30.00,NW,304,0.0,4.0,81,0.00,,,0.00,320.000000,,2013-07-02 16:43:00,
2013-07-02 13:02:00,73.0,66.0,30.00,WNW,288,1.0,6.0,80,0.00,,,0.00,438.000000,,2013-07-02 17:02:00,
2013-07-02 13:12:00,73.0,66.0,30.00,WNW,288,1.0,6.0,80,0.00,,,0.00,438.000000,,2013-07-02 17:12:00,
2013-07-02 13:22:00,73.0,67.0,30.00,NW,307,1.0,6.0,81,0.00,,,0.00,339.000000,,2013-07-02 17:22:00,
2013-07-02 13:33:00,73.0,67.0,30.00,NW,307,1.0,6.0,81,0.00,,,0.00,339.000000,,2013-07-02 17:33:00,
2013-07-02 13:43:00,73.0,67.0,30.01,NNW,336,0.0,5.0,81,0.00,,,0.00,274.000000,,2013-07-02 17:43:00,
2013-07-02 13:53:00,72.0,66.0,30.00,NNW,337,0.0,4.0,81,0.00,,,0.00,327.000000,,2013-07-02 17:53:00,
2013-07-02 14:02:00,74.0,67.0,30.01,NNW,345,1.0,6.0,79,0.00,,,0.00,541.000000,,2013-07-02 18:02:00,
2013-07-02 14:23:00,75.0,67.0,30.01,SW,223,2.0,5.0,75,0.00,,,0.00,,,2013-07-02 18:23:00,
2013-07-02 14:34:00,74.0,67.0,29.99,WNW,285,3.0,8.0,79,0.00,,,0.00,459.000000,,2013-07-02 18:34:00,
2013-07-02 14:53:00,73.0,66.0,30.00,NW,312,2.0,7.0,80,0.00,,,0.00,246.000000,,2013-07-02 18:53:00,
2013-07-02 15:22:00,74.0,67.0,30.00,NNW,330,0.0,5.0,78,0.00,,,0.00,285.000000,,2013-07-02 19:22:00,
2013-07-02 15:34:00,75.0,68.0,30.00,NW,313,1.0,7.0,78,0.00,,,0.00,339.000000,,2013-07-02 19:34:00,
2013-07-02 15:53:00,76.0,69.0,29.99,North,350,2.0,5.0,78,0.00,,,0.00,928.000000,,2013-07-02 19:53:00,
2013-07-02 16:22:00,76.0,68.0,29.98,NNE,32,1.0,8.0,77,0.00,,,0.00,904.000000,,2013-07-02 20:22:00,
2013-07-02 16:33:00,77.0,68.0,29.98,NNE,33,2.0,6.0,75,0.00,,,0.00,717.000000,,2013-07-02 20:33:00,
2013-07-02 16:43:00,76.0,68.0,29.98,NNW,331,3.0,5.0,77,0.00,,,0.00,355.000000,,2013-07-02 20:43:00,
2013-07-02 16:52:00,76.0,68.0,29.98,NNW,331,3.0,5.0,77,0.00,,,0.00,355.000000,,2013-07-02 20:52:00,
2013-07-02 17:11:00,77.0,69.0,29.98,NNE,24,2.0,6.0,77,0.00,,,0.00,765.000000,,2013-07-02 21:11:00,
2013-07-02 17:22:00,77.0,69.0,29.98,North,351,3.0,8.0,77,0.00,,,0.00,162.000000,,2013-07-02 21:22:00,
2013-07-02 17:44:00,77.0,69.0,29.98,NE,38,4.0,10.0,77,0.00,,,0.00,657.000000,,2013-07-02 21:44:00,
2013-07-02 17:52:00,77.0,69.0,29.98,NE,38,4.0,10.0,77,0.00,,,0.00,657.000000,,2013-07-02 21:52:00,
2013-07-02 18:22:00,75.0,68.0,29.98,NW,306,2.0,8.0,78,0.00,,,0.00,139.000000,,2013-07-02 22:22:00,
2013-07-02 18:34:00,74.0,67.0,29.98,NNE,30,4.0,9.0,80,0.00,,,0.00,156.000000,,2013-07-02 22:34:00,
2013-07-02 18:43:00,74.0,67.0,29.98,North,11,3.0,7.0,79,0.00,,,0.00,125.000000,,2013-07-02 22:43:00,
2013-07-02 18:53:00,74.0,67.0,29.98,North,11,3.0,7.0,79,0.00,,,0.00,125.000000,,2013-07-02 22:53:00,
2013-07-02 19:01:00,73.0,66.0,29.98,NNW,336,2.0,8.0,79,0.00,,,0.00,323.000000,,2013-07-02 23:01:00,
2013-07-02 19:12:00,73.0,66.0,29.99,NNW,343,6.0,10.0,79,0.00,,,0.00,276.000000,,2013-07-02 23:12:00,
2013-07-02 19:22:00,73.0,66.0,29.99,NNW,343,6.0,10.0,79,0.00,,,0.00,276.000000,,2013-07-02 23:22:00,
2013-07-02 19:33:00,73.0,66.0,29.99,NW,321,2.0,7.0,80,0.00,,,0.00,253.000000,,2013-07-02 23:33:00,
2013-07-02 19:52:00,72.0,66.0,29.99,NNW,333,1.0,9.0,81,0.00,,,0.00,93.000000,,2013-07-02 23:52:00,
2013-07-02 20:01:00,71.0,65.0,29.99,North,355,3.0,7.0,82,0.00,,,0.00,67.000000,,2013-07-03 00:01:00,
2013-07-02 20:11:00,71.0,66.0,30.00,NNW,338,2.0,5.0,83,0.00,,,0.00,46.000000,,2013-07-03 00:11:00,
2013-07-02 20:22:00,71.0,66.0,30.00,NNW,338,2.0,5.0,83,0.00,,,0.00,46.000000,,2013-07-03 00:22:00,
2013-07-02 20:33:00,70.0,66.0,30.00,NNE,26,1.0,5.0,86,0.00,,,0.00,16.000000,,2013-07-03 00:33:00,
2013-07-02 20:44:00,70.0,66.0,30.00,NNE,26,1.0,5.0,86,0.00,,,0.00,16.000000,,2013-07-03 00:44:00,
2013-07-02 20:52:00,70.0,66.0,30.01,NNE,26,0.0,3.0,88,0.00,,,0.00,11.000000,,2013-07-03 00:52:00,
2013-07-02 21:01:00,69.0,66.0,30.01,NNE,26,0.0,3.0,89,0.00,,,0.00,5.000000,,2013-07-03 01:01:00,
2013-07-02 21:11:00,69.0,66.0,30.01,NNE,26,0.0,3.0,89,0.00,,,0.00,5.000000,,2013-07-03 01:11:00,
2013-07-02 21:22:00,69.0,66.0,30.01,NNE,26,0.0,3.0,89,0.00,,,0.00,0.000000,,2013-07-03 01:22:00,
2013-07-02 21:33:00,69.0,66.0,30.01,NNE,26,0.0,3.0,89,0.00,,,0.00,0.000000,,2013-07-03 01:33:00,
2013-07-02 21:42:00,69.0,66.0,30.01,NNE,26,0.0,1.0,89,0.00,,,0.00,0.000000,,2013-07-03 01:42:00,
2013-07-02 21:59:00,69.0,66.0,30.01,NNE,26,0.0,1.0,89,0.00,,,0.00,0.000000,,2013-07-03 01:59:00,
2013-07-02 22:14:00,69.0,66.0,30.01,NNE,26,0.0,2.0,89,0.00,,,0.00,0.000000,,2013-07-03 02:14:00,
2013-07-02 22:27:00,69.0,66.0,30.01,NNE,26,0.0,2.0,89,0.00,,,0.00,0.000000,,2013-07-03 02:27:00,
2013-07-02 22:39:00,68.0,65.0,30.02,NNE,26,0.0,1.0,91,0.00,,,0.00,0.000000,,2013-07-03 02:39:00,
2013-07-02 22:44:00,68.0,65.0,30.02,NNE,26,0.0,1.0,91,0.00,,,0.00,0.000000,,2013-07-03 02:44:00,
2013-07-02 23:06:00,67.0,64.0,30.03,NNE,26,0.0,0.0,91,0.00,,,0.00,0.000000,,2013-07-03 03:06:00,
2013-07-02 23:13:00,67.0,64.0,30.03,NNE,26,0.0,0.0,91,0.00,,,0.00,0.000000,,2013-07-03 03:13:00,
2013-07-02 23:25:00,67.0,65.0,30.03,NNE,26,0.0,0.0,92,0.00,,,0.00,0.000000,,2013-07-03 03:25:00,
2013-07-02 23:36:00,67.0,65.0,30.03,NNE,26,0.0,0.0,92,0.00,,,0.00,0.000000,,2013-07-03 03:36:00,
2013-07-02 23:56:00,66.0,64.0,30.03,NNE,26,0.0,0.0,93,0.00,,,0.00,0.000000,,2013-07-03 03:56:00,